| time (UTC) | temp F | wind direction | speed MPH | gust MPH | rain 1hr in | rain 24hr in | rain mn in | humidity % | barometer mb |
| 20260503033054 | 40 | 248 | 1.0 | 6.0 | 0.00 | 0.00 | 0.00 | 77 | 1017.0 |
| 20260503031604 | 40 | 258 | 2.0 | 5.0 | 0.00 | 0.00 | 0.00 | 79 | 1017.0 |
| 20260503030054 | 40 | 194 | 1.0 | 5.0 | 0.00 | 0.00 | 0.00 | 79 | 1017.0 |
| 20260503024553 | 40 | 195 | 1.0 | 3.0 | 0.00 | 0.00 | 0.00 | 80 | 1017.2 |
| 20260503023052 | 40 | 180 | 1.0 | 4.0 | 0.00 | 0.00 | 0.00 | 79 | 1017.3 |
| 20260503021552 | 40 | 174 | 1.0 | 4.0 | 0.00 | 0.00 | 0.00 | 78 | 1017.4 |
| 20260503020054 | 40 | 167 | 0.0 | 4.0 | 0.00 | 0.00 | 0.00 | 76 | 1017.5 |
| 20260503014607 | 40 | 194 | 2.0 | 5.0 | 0.00 | 0.00 | 0.00 | 74 | 1017.5 |
| 20260503013050 | 41 | 215 | 2.0 | 4.0 | 0.00 | 0.00 | 0.00 | 72 | 1017.5 |
| 20260503011555 | 41 | 234 | 0.0 | 3.0 | 0.00 | 0.00 | 0.00 | 71 | 1017.4 |
| 20260503010050 | 41 | 214 | 0.0 | 4.0 | 0.00 | 0.00 | 0.00 | 73 | 1017.4 |
| 20260503004549 | 41 | 250 | 0.0 | 6.0 | 0.00 | 0.00 | 0.00 | 73 | 1017.3 |
| 20260503003049 | 41 | 271 | 1.0 | 4.0 | 0.00 | 0.00 | 0.00 | 74 | 1017.2 |
| 20260503001559 | 41 | 252 | 4.0 | 8.0 | 0.00 | 0.00 | 0.00 | 73 | 1017.2 |
| 20260503000047 | 41 | 246 | 2.0 | 6.0 | 0.00 | 0.00 | 0.00 | 74 | 1017.2 |
| 20260502234551 | 42 | 263 | 2.0 | 10.0 | 0.00 | 0.00 | 0.00 | 73 | 1017.2 |
| 20260502233049 | 42 | 273 | 4.0 | 11.0 | 0.00 | 0.00 | 0.00 | 72 | 1017.2 |
| 20260502231547 | 42 | 267 | 3.0 | 10.0 | 0.00 | 0.00 | 0.00 | 72 | 1017.1 |
| 20260502230046 | 41 | 253 | 5.0 | 11.0 | 0.00 | 0.00 | 0.00 | 73 | 1017.1 |
| 20260502224545 | 42 | 236 | 4.0 | 8.0 | 0.00 | 0.00 | 0.00 | 72 | 1017.1 |
| 20260502223045 | 42 | 248 | 4.0 | 10.0 | 0.00 | 0.00 | 0.00 | 72 | 1017.1 |
| 20260502221544 | 42 | 286 | 4.0 | 12.0 | 0.00 | 0.00 | 0.00 | 73 | 1017.0 |
| 20260502220044 | 42 | 281 | 5.0 | 12.0 | 0.00 | 0.00 | 0.00 | 72 | 1017.0 |
| 20260502214543 | 42 | 247 | 6.0 | 15.0 | 0.00 | 0.00 | 0.00 | 71 | 1017.2 |
| 20260502213044 | 42 | 259 | 6.0 | 12.0 | 0.00 | 0.00 | 0.00 | 70 | 1017.0 |
| 20260502211543 | 43 | 286 | 3.0 | 9.0 | 0.00 | 0.00 | 0.00 | 69 | 1017.0 |
| 20260502210056 | 42 | 264 | 4.0 | 11.0 | 0.00 | 0.00 | 0.00 | 67 | 1017.1 |
| 20260502204549 | 42 | 205 | 2.0 | 11.0 | 0.00 | 0.00 | 0.00 | 67 | 1017.1 |
| 20260502203042 | 42 | 307 | 4.0 | 15.0 | 0.00 | 0.00 | 0.00 | 67 | 1017.2 |
| 20260502201550 | 43 | 266 | 6.0 | 15.0 | 0.00 | 0.00 | 0.00 | 64 | 1017.3 |
| 20260502200042 | 43 | 287 | 5.0 | 17.0 | 0.00 | 0.00 | 0.00 | 64 | 1017.5 |
| 20260502194540 | 46 | 227 | 4.0 | 16.0 | 0.00 | 0.00 | 0.00 | 61 | 1017.5 |
| 20260502193039 | 45 | 268 | 6.0 | 14.0 | 0.00 | 0.00 | 0.00 | 61 | 1017.7 |
| 20260502191551 | 45 | 242 | 6.0 | 14.0 | 0.00 | 0.00 | 0.00 | 61 | 1017.7 |
| 20260502190043 | 46 | 273 | 6.0 | 13.0 | 0.00 | 0.00 | 0.00 | 59 | 1017.8 |
| 20260502184548 | 44 | 286 | 4.0 | 13.0 | 0.00 | 0.00 | 0.00 | 63 | 1017.7 |
| 20260502183059 | 44 | 262 | 5.0 | 13.0 | 0.00 | 0.00 | 0.00 | 60 | 1017.7 |
| 20260502181542 | 44 | 175 | 4.0 | 13.0 | 0.00 | 0.00 | 0.00 | 63 | 1017.7 |
| 20260502163031 | 45 | 258 | 6.0 | 12.0 | 0.00 | 0.01 | 0.00 | 58 | 1017.7 |
| 20260502161527 | 44 | 255 | 5.0 | 10.0 | 0.00 | 0.01 | 0.00 | 57 | 1017.6 |
| 20260502151521 | 43 | 290 | 3.0 | 7.0 | 0.00 | 0.02 | 0.00 | 61 | 1017.6 |
| 20260502123021 | 39 | 302 | 3.0 | 10.0 | 0.00 | 0.03 | 0.00 | 68 | 1018.1 |
| 20260502121514 | 39 | 282 | 3.0 | 7.0 | 0.00 | 0.03 | 0.00 | 70 | 1018.0 |
| 20260502114511 | 38 | 265 | 3.0 | 6.0 | 0.00 | 0.03 | 0.00 | 71 | 1017.8 |
| 20260502113011 | 38 | 251 | 3.0 | 6.0 | 0.00 | 0.03 | 0.00 | 74 | 1017.9 |
| 20260502111516 | 37 | 267 | 2.0 | 5.0 | 0.00 | 0.03 | 0.00 | 78 | 1017.8 |
| 20260502110013 | 35 | 236 | 0.0 | 5.0 | 0.00 | 0.03 | 0.00 | 85 | 1017.7 |
| 20260502104507 | 33 | 200 | 1.0 | 2.0 | 0.00 | 0.03 | 0.00 | 84 | 1017.6 |
| 20260502103006 | 33 | 200 | 0.0 | 4.0 | 0.00 | 0.03 | 0.00 | 83 | 1017.6 |
| 20260502101502 | 35 | 202 | 1.0 | 3.0 | 0.00 | 0.03 | 0.00 | 79 | 1017.4 |
| 20260502090108 | 37 | 266 | 2.0 | 11.0 | 0.00 | 0.03 | 0.00 | 79 | 1016.9 |
| 20260502070044 | 38 | 299 | 5.0 | 13.0 | 0.00 | 0.03 | 0.00 | 75 | 1016.3 |
| 20260502064542 | 38 | 296 | 4.0 | 14.0 | 0.00 | 0.03 | 0.00 | 74 | 1016.4 |
| 20260502063042 | 39 | 307 | 5.0 | 11.0 | 0.00 | 0.03 | 0.00 | 73 | 1016.7 |
| 20260502061542 | 39 | 254 | 5.0 | 11.0 | 0.00 | 0.03 | 0.00 | 71 | 1016.8 |
| 20260502060037 | 39 | 312 | 5.0 | 11.0 | 0.00 | 0.03 | 0.00 | 70 | 1016.7 |
| 20260502054536 | 39 | 306 | 5.0 | 11.0 | 0.00 | 0.03 | 0.00 | 70 | 1016.8 |
| 20260502053035 | 40 | 313 | 6.0 | 12.0 | 0.00 | 0.03 | 0.00 | 68 | 1016.8 |
| 20260502051538 | 40 | 314 | 5.0 | 14.0 | 0.00 | 0.03 | 0.00 | 68 | 1016.7 |
| 20260502050038 | 40 | 340 | 6.0 | 12.0 | 0.00 | 0.03 | 0.00 | 67 | 1016.6 |
| 20260502044525 | 41 | 309 | 5.0 | 10.0 | 0.00 | 0.03 | 0.00 | 67 | 1016.4 |
| 20260502043022 | 41 | 308 | 6.0 | 15.0 | 0.00 | 0.03 | 0.00 | 64 | 1016.2 |
| 20260502041519 | 42 | 294 | 3.0 | 9.0 | 0.00 | 0.03 | 0.00 | 67 | 1016.0 |
| 20260502040015 | 42 | 307 | 2.0 | 7.0 | 0.00 | 0.03 | 0.00 | 68 | 1015.7 |
| 20260502034514 | 42 | 310 | 3.0 | 7.0 | 0.00 | 0.03 | 0.03 | 70 | 1015.7 |